Regional Weather Roundup
Issued by NWS

Home | Current Version | Previous Version | Graphics & Text | Print | Product List | Glossary On
Versions: 1 2 3 4 5 6 7 8 9 10 11 12 13 14 15 16 17 18 19 20 21 22 23 24 25 26 27 28 29 30 31 32 33 34 35 36 37 38 39 40 41 42 43 44 45 46 47 48 49 50
000
ASUS43 KIND 230859
RWRIN

WEATHER ROUNDUP FOR INDIANA
NATIONAL WEATHER SERVICE INDIANAPOLIS IN
400 AM EST MON JAN 23 2017

NOTE: "FAIR" INDICATES FEW OR NO CLOUDS BELOW 12,000 FEET WITH NO
SIGNIFICANT WEATHER AND/OR OBSTRUCTIONS TO VISIBILITY.

* - STATION DOES NOT REPORT WEATHER SUCH AS PRECIPITATION OR FOG.

+ - STATION NOT QUALITY CONTROLLED BY THE NATIONAL WEATHER SERVICE.
    USE DATA WITH CAUTION...ESPECIALLY DEWPOINT AND RELATIVE
    HUMIDITY OBSERVATIONS.

INZ001>003-010>013-019-020-231000-
NORTHWEST INDIANA

CITY           SKY/WX    TMP DP  RH WIND       PRES   REMARKS
MONTICELLO +   CLOUDY    40  39  95 N9        29.62R FOG

$$

LMZ046-743>745-231000-
SOUTHERN LAKE MICHIGAN

STATION/POSITION TIME  TEMP    WIND        PRES    WAVE
                       AIR SEA DIR/SP/G            HT
                 (UTC) (F)     (DEG/KT/KT) (MB)    (FT)
BURNS HARBOR     0840   36     350/ 11/ 14 1006.1R
MICHIGAN CITY    0830   36     340/ 18/ 19   N/A

$$

INZ004-005-014>016-021>024-231000-
NORTH CENTRAL INDIANA

CITY           SKY/WX    TMP DP  RH WIND       PRES   REMARKS
GOSHEN         CLOUDY    42  40  92 N10       29.62R FOG
SOUTH BEND     FOG       40  40 100 N12       29.65R VSB 1

$$

INZ006>009-017-018-025>027-231000-
NORTHEAST INDIANA

CITY           SKY/WX    TMP DP  RH WIND       PRES   REMARKS
ANGOLA *+      CLOUDY    43  30  61 N6        29.59S VSB 1/2
FORT WAYNE     CLOUDY    47  45  93 N9        29.56F FOG
KENDALLVILLE + CLOUDY    43  43 100 N8        29.60R FOG

$$

INZ028-029-035-036-043>045-051>053-231000-
WEST CENTRAL INDIANA

CITY           SKY/WX    TMP DP  RH WIND       PRES   REMARKS
CRAWFORDSVL +  FOG       39  39 100 N13       29.61R VSB 1/2
LAFAYETTE      CLOUDY    41  41 100 N6        29.63R FOG
TERRE HAUTE    CLOUDY    43  41  93 N13G25    29.60R FOG

$$

INZ030>032-037>040-046>048-054>057-064-065-231000-
CENTRAL INDIANA

CITY           SKY/WX    TMP DP  RH WIND       PRES   REMARKS
INDIANAPOLIS   CLOUDY    46  45  96 N18       29.53F FOG
-EAGLE CREEK   CLOUDY    45  43  93 N16G23    29.54S FOG
KOKOMO +       FOG       44  44 100 N14       29.59R VSB 3/4
MT COMFORT *+  CLOUDY    46  46 100 N16G22    29.53R
SHELBYVILLE    CLOUDY    50  47  89 N18G28    29.50R FOG

$$

INZ033-034-041-042-049-050-058-059-231000-
EAST CENTRAL INDIANA

CITY           SKY/WX    TMP DP  RH WIND       PRES   REMARKS
MUNCIE         FOG       48  47  96 NE10      29.53R VSB 3/4

$$

INZ060-061-067>069-081>083-085>088-231000-
SOUTHWEST INDIANA

CITY           SKY/WX    TMP DP  RH WIND       PRES   REMARKS
EVANSVILLE     CLOUDY    46  42  86 NW18G29   29.54R
HUNTINGBURG *+ CLOUDY    48  46  93 NW18      29.50R

$$

INZ062-063-066-070>080-084-089>092-231000-
SOUTH CENTRAL AND SOUTHEAST INDIANA

CITY           SKY/WX    TMP DP  RH WIND       PRES   REMARKS
BLOOMINGTON    CLOUDY    47  44  90 N17G24    29.52R FOG
MADISON *+     CLOUDY    52  46  82 NW9       29.45S
SEYMOUR +      CLOUDY    52  48  87 N16G22    29.47R

$$





USA.gov is the U.S. government's official web portal to all federal, state and local government web resources and services.